Weather History for Rexburg, ID

Change the Weather History Date:

Friday, June 7, 2013

  Actual Average Record
Temperature  
Mean Temperature 65 °F 58 °F  
Max Temperature 84 °F 72 °F 91 °F (2006)
Min Temperature 46 °F 44 °F 32 °F (2012)
Degree Days  
Heating Degree Days 0 7  
Month to date heating degree days 44 56  
Since 1 June heating degree days 44 56  
Since 1 July heating degree days 7728 8014  
Cooling Degree Days 0 0  
Month to date cooling degree days 0 0  
Year to date cooling degree days 2 4  
Since 1 June cooling degree days 0 0  
Growing Degree Days 15 (Base 50)    
Moisture  
Dew Point 44 °F    
Average Humidity 56    
Maximum Humidity 86    
Minimum Humidity 26    
Precipitation  
Precipitation 0.00 in 0.06 in 0.58 in (1993)
Month to date precipitation 0.00 0.45  
Year to date precipitation 4.25 6.32  
Sea Level Pressure  
Sea Level Pressure 29.85 in    
Wind  
Wind Speed 7 mph (South)    
Max Wind Speed 22 mph    
Max Gust Speed 29 mph    
Visibility 10 miles    
Events      
T = Trace of Precipitation, MM = Missing Value Source: NWS Daily Summary

Daily Weather History Graph

Daily Weather History Graph

Search for Another Location

Airport:

Trip Planner

Search our weather history database for the weather conditions in past years. The results will help you decide how hot, cold, wet, or windy it might be!

Date:

Astronomy

Jun. 07, 2013 Rise Set
Actual Time 5:45 AM MDT 9:07 PM MDT
Civil Twilight 5:09 AM MDT 9:42 PM MDT
Nautical Twilight 4:23 AM MDT 10:29 PM MDT
Astronomical Twilight 3:25 AM MDT 11:27 PM MDT
Moon 5:13 AM MDT (6/7) 8:22 PM MDT (6/7)
Length of Visible Light 16h 33m
Length of Day
15h 21m
Waning Crescent, 1% of the Moon is Illuminated
Jun 7
Waning Crescent
Jun 8
New
Jun 16
First Quarter
Jun 23
Full
Jun 29
Last Quarter

Hourly Weather History & Observations

Time (MDT) Temp. Windchill Dew Point Humidity Pressure Visibility Wind Dir Wind Speed Gust Speed Precip Events Conditions
12:53 AM 54.0 °F - 45.0 °F 72% 29.96 in 10.0 mi NE 5.8 mph - N/A   Clear
1:53 AM 51.1 °F - 45.0 °F 80% 29.96 in 10.0 mi Calm Calm - N/A   Clear
2:53 AM 50.0 °F - 44.1 °F 80% 29.95 in 10.0 mi NNE 3.5 mph - N/A   Mostly Cloudy
3:53 AM 48.9 °F - 43.0 °F 80% 29.94 in 10.0 mi NE 3.5 mph - N/A   Clear
4:53 AM 46.9 °F - 43.0 °F 86% 29.94 in 10.0 mi East 4.6 mph - N/A   Clear
5:53 AM 46.0 °F 44.8 °F 42.1 °F 86% 29.96 in 10.0 mi NNE 3.5 mph - N/A   Clear
6:53 AM 48.9 °F - 42.1 °F 77% 29.96 in 10.0 mi NE 3.5 mph - N/A   Clear
7:53 AM 52.0 °F - 44.1 °F 74% 29.95 in 10.0 mi NE 3.5 mph - N/A   Clear
8:53 AM 57.9 °F - 45.0 °F 62% 29.96 in 10.0 mi Calm Calm - N/A   Clear
9:53 AM 64.0 °F - 46.0 °F 52% 29.94 in 10.0 mi Calm Calm - N/A   Clear
10:53 AM 70.0 °F - 48.0 °F 46% 29.91 in 10.0 mi Variable 6.9 mph - N/A   Clear
11:53 AM 73.9 °F - 46.9 °F 38% 29.91 in 10.0 mi SSW 10.4 mph - N/A   Clear
12:53 PM 75.9 °F - 46.0 °F 35% 29.89 in 10.0 mi SW 10.4 mph - N/A   Clear
1:53 PM 80.1 °F - 45.0 °F 29% 29.86 in 10.0 mi SW 9.2 mph - N/A   Clear
2:53 PM 81.0 °F - 44.1 °F 27% 29.84 in 10.0 mi SSW 13.8 mph 20.7 mph N/A   Clear
3:53 PM 81.0 °F - 45.0 °F 28% 29.82 in 10.0 mi SSW 13.8 mph 20.7 mph N/A   Clear
4:53 PM 84.0 °F - 46.0 °F 26% 29.77 in 10.0 mi South 12.7 mph 21.9 mph N/A   Clear
5:53 PM 82.9 °F - 44.1 °F 25% 29.75 in 10.0 mi South 13.8 mph 25.3 mph N/A   Clear
6:53 PM 80.1 °F - 43.0 °F 27% 29.71 in 10.0 mi SSW 17.3 mph 27.6 mph N/A   Clear
7:53 PM 78.1 °F - 41.0 °F 27% 29.70 in 10.0 mi SSW 16.1 mph 24.2 mph N/A   Clear
8:53 PM 73.9 °F - 39.0 °F 28% 29.67 in 10.0 mi SSW 12.7 mph - N/A   Clear
9:53 PM 70.0 °F - 41.0 °F 35% 29.67 in 10.0 mi SSW 9.2 mph - N/A   Clear
10:53 PM 64.9 °F - 44.1 °F 47% 29.71 in 10.0 mi SSW 4.6 mph - N/A   Clear
11:53 PM 66.0 °F - 44.1 °F 45% 29.73 in 10.0 mi ENE 4.6 mph - N/A   Clear